Location: Ústí nad Labem
(50.6611°N, 14.0531°E)
Time: 06:02:01
(UTC+02:00)

Transit 4A - All Passes

Search period start: 22 April 2024 00:00
Search period end: 02 May 2024 00:00
Orbit: 871 x 972 km, 66.8° (Epoch: 21 April)

Date Brightness Start Highest point End Pass type
(mag) Time Alt. Az. Time Alt. Az. Time Alt. Az.
22 Apr - 12:10:16 10° SSE 12:14:30 20° ESE 12:18:43 10° ENE daylight
22 Apr - 13:54:10 10° SW 14:00:09 87° NW 14:06:03 10° NE daylight
22 Apr - 15:42:16 10° W 15:47:16 27° NNW 15:52:14 10° NNE daylight
22 Apr - 17:32:01 10° NW 17:35:38 16° N 17:39:15 10° NE daylight
22 Apr - 19:19:41 10° NNW 19:24:11 22° NNE 19:28:42 10° ENE daylight
22 Apr - 21:05:53 10° NNW 21:11:41 62° NE 21:17:29 10° SE visible
22 Apr - 22:52:41 10° NW 22:57:41 30° WSW 23:02:41 10° S visible
23 Apr - 12:18:17 10° SSE 12:23:18 29° ESE 12:28:15 10° NE daylight
23 Apr - 14:03:20 10° SW 14:09:16 66° NW 14:15:06 10° NE daylight
23 Apr - 15:52:02 10° WNW 15:56:40 23° NNW 16:01:17 10° NNE daylight
23 Apr - 17:41:36 10° NW 17:45:13 16° N 17:48:48 10° NE daylight
23 Apr - 19:28:45 10° NNW 19:33:37 26° NNE 19:38:30 10° E daylight
23 Apr - 21:14:56 10° NW 21:20:48 82° NE 21:26:41 10° SE visible
23 Apr - 23:02:13 10° WNW 23:06:28 21° WSW 23:10:46 10° SSW visible
24 Apr - 12:26:38 10° S 12:32:10 40° ESE 12:37:36 10° NE daylight
24 Apr - 14:12:39 10° WSW 14:18:26 50° NW 14:24:08 10° NNE daylight
24 Apr - 16:01:52 10° WNW 16:06:09 20° NNW 16:10:24 10° NNE daylight
24 Apr - 17:51:03 10° NNW 17:54:47 17° N 17:58:29 10° NE daylight
24 Apr - 19:37:48 10° NNW 19:42:59 32° NE 19:48:11 10° E daylight
24 Apr - 21:24:01 10° NW 21:29:51 74° WSW 21:35:42 10° SSE visible
24 Apr - 23:12:08 10° WNW 23:15:12 15° WSW 23:18:16 10° SW visible
25 Apr - 10:55:13 10° ESE 10:55:59 10° E 10:56:45 10° E daylight
25 Apr - 12:35:16 10° SSW 12:41:05 56° ESE 12:46:49 10° NE daylight
25 Apr - 14:22:09 10° WSW 14:27:40 39° NW 14:33:08 10° NNE daylight
25 Apr - 16:11:43 10° NW 16:15:40 18° NNW 16:19:36 10° NNE daylight
25 Apr - 18:00:21 10° NNW 18:04:19 18° NNE 18:08:16 10° ENE daylight
25 Apr - 19:46:48 10° NNW 19:52:17 40° NE 19:57:47 10° ESE daylight
25 Apr - 21:33:10 10° NW 21:38:49 54° WSW 21:44:30 10° SSE visible
26 Apr - 11:01:15 10° SE 11:04:39 16° ESE 11:08:02 10° ENE daylight
26 Apr - 12:44:07 10° SSW 12:50:04 77° SE 12:55:57 10° NE daylight
26 Apr - 14:31:45 10° W 14:36:58 31° NW 14:42:09 10° NNE daylight
26 Apr - 16:21:30 10° NW 16:25:12 17° N 16:28:54 10° NNE daylight
26 Apr - 18:09:33 10° NNW 18:13:49 20° NNE 18:18:06 10° ENE daylight
26 Apr - 19:55:50 10° NNW 20:01:31 51° NE 20:07:13 10° ESE daylight
26 Apr - 21:42:24 10° NW 21:47:44 38° WSW 21:53:06 10° S visible
27 Apr - 11:08:53 10° SSE 11:13:24 23° ESE 11:17:51 10° ENE daylight
27 Apr - 12:53:10 10° SW 12:59:08 80° NW 13:05:01 10° NE daylight
27 Apr - 14:41:27 10° W 14:46:20 26° NNW 14:51:11 10° NNE daylight
27 Apr - 16:31:11 10° NW 16:34:46 16° N 16:38:21 10° NE daylight
27 Apr - 18:18:39 10° NNW 18:23:17 23° NNE 18:27:54 10° ENE daylight
27 Apr - 20:04:51 10° NW 20:10:41 68° NE 20:16:32 10° SE daylight
27 Apr - 21:51:46 10° NW 21:56:34 27° WSW 22:01:25 10° SSW visible
28 Apr - 11:17:00 10° S 11:22:12 32° ESE 11:27:20 10° NE daylight
28 Apr - 13:02:22 10° SW 13:08:15 60° NW 13:14:03 10° NNE daylight
28 Apr - 14:51:15 10° WNW 14:55:46 22° NNW 15:00:15 10° NNE daylight
28 Apr - 16:40:43 10° NW 16:44:20 16° N 16:47:56 10° NE daylight
28 Apr - 18:27:43 10° NNW 18:32:41 28° NNE 18:37:40 10° E daylight
28 Apr - 20:13:54 10° NW 20:19:46 90° ENE 20:25:40 10° SE daylight
28 Apr - 22:01:22 10° WNW 22:05:21 19° WSW 22:09:20 10° SSW visible
29 Apr - 11:25:28 10° S 11:31:04 45° ESE 11:36:37 10° NE daylight
29 Apr - 13:11:44 10° WSW 13:17:26 46° NW 13:23:04 10° NNE daylight
29 Apr - 15:01:05 10° WNW 15:05:15 19° NNW 15:09:23 10° NNE daylight
29 Apr - 16:50:06 10° NNW 16:53:53 17° N 16:57:40 10° NE daylight
29 Apr - 18:36:44 10° NNW 18:42:01 34° NE 18:47:19 10° E daylight
29 Apr - 20:22:59 10° NW 20:28:47 67° WSW 20:34:36 10° SSE daylight
29 Apr - 22:11:32 10° WNW 22:14:02 13° WSW 22:16:34 10° SW visible
30 Apr - 09:52:48 10° ESE 09:54:49 12° E 09:56:50 10° E daylight
30 Apr - 11:34:09 10° SSW 11:40:01 62° ESE 11:45:48 10° NE daylight
30 Apr - 13:21:16 10° WSW 13:26:41 36° NW 13:32:05 10° NNE daylight
30 Apr - 15:10:54 10° NW 15:14:46 18° NNW 15:18:37 10° NNE daylight
30 Apr - 16:59:22 10° NNW 17:03:25 19° NNE 17:07:27 10° ENE daylight
30 Apr - 18:45:45 10° NNW 18:51:18 43° NE 18:56:52 10° ESE daylight
30 Apr - 20:32:10 10° NW 20:37:45 48° WSW 20:43:21 10° S daylight
01 May - 09:59:43 10° SE 10:03:30 18° ESE 10:07:16 10° ENE daylight
01 May - 11:43:03 10° SSW 11:49:01 84° SE 11:54:54 10° NE daylight
01 May - 13:30:54 10° W 13:36:01 29° NNW 13:41:05 10° NNE daylight
01 May - 15:20:40 10° NW 15:24:19 17° N 15:27:57 10° NNE daylight
01 May - 17:08:31 10° NNW 17:12:54 21° NNE 17:17:17 10° ENE daylight
01 May - 18:54:46 10° NNW 19:00:30 56° NE 19:06:16 10° SE daylight
01 May - 20:41:25 10° NW 20:46:38 34° WSW 20:51:52 10° S daylight
